User: anonymous   Login
Location: Vancouver
(49.2500°N, 123.1330°W)
Time: 17:35:28
(UTC-08:00)
Language:

JAS-1B - Orbit

View from above orbital plane
View from above orbital plane
View from above satellite
View from above satellite

Ground track
Ground track

The orbit data is extracted from the following two-line orbital elements,

1 20480U 90013C   17346.84196824 -.00000016  00000-0  40955-4 0  9995
2 20480  99.0737  86.7546 0540039 346.6556  12.0727 12.83417466304630
Epoch (UTC): 12 December 2017 20:12:26
Eccentricity: 0.0540039
inclination: 99.0737°
perigee height: 911 km
apogee height: 1744 km
right ascension of ascending node: 86.7546°
argument of perigee: 346.6556°
revolutions per day: 12.83417466
mean anomaly at epoch: 12.0727°
orbit number at epoch: 30463

The dashed part of the orbit path shows where the satellite is in the earth's shadow,  

DLR